| time (UTC) | temp F | wind direction | speed knots | gust knots | rain 1hr in | rain 24hr in | rain mn in | humidity % | barometer mb |
| 20260506044517 | 71 | 256 | 2.6 | 10.4 | 0.00 | 0.00 | 0.00 | 53 | 1010.5 |
| 20260506043016 | 71 | 143 | 3.5 | 16.5 | 0.00 | 0.00 | 0.00 | 52 | 1010.3 |
| 20260506041514 | 71 | 116 | 3.5 | 19.1 | 0.00 | 0.00 | 0.00 | 51 | 1010.4 |
| 20260506040018 | 71 | 111 | 4.3 | 13.9 | 0.00 | 0.00 | 0.00 | 50 | 1010.3 |
| 20260506034514 | 71 | 192 | 4.3 | 10.4 | 0.00 | 0.00 | 0.00 | 50 | 1010.2 |
| 20260506033013 | 71 | 161 | 3.5 | 8.7 | 0.00 | 0.00 | 0.00 | 49 | 1010.2 |
| 20260506031513 | 71 | 202 | 2.6 | 8.7 | 0.00 | 0.00 | 0.00 | 48 | 1010.3 |
| 20260506030015 | 72 | 128 | 4.3 | 9.6 | 0.00 | 0.00 | 0.00 | 46 | 1010.2 |
| 20260506024512 | 72 | 117 | 1.7 | 13.9 | 0.00 | 0.00 | 0.00 | 45 | 1010.2 |
| 20260506023010 | 72 | 88 | 3.5 | 13.0 | 0.00 | 0.00 | 0.00 | 43 | 1010.2 |
| 20260506021510 | 73 | 141 | 4.3 | 8.7 | 0.00 | 0.00 | 0.00 | 41 | 1010.3 |
| 20260506020011 | 73 | 150 | 6.1 | 16.5 | 0.00 | 0.00 | 0.00 | 41 | 1010.1 |
| 20260506014509 | 74 | 133 | 2.6 | 11.3 | 0.00 | 0.00 | 0.00 | 40 | 1010.1 |
| 20260506013009 | 74 | 194 | 4.3 | 15.6 | 0.00 | 0.00 | 0.00 | 39 | 1010.0 |
| 20260506011507 | 74 | 267 | 2.6 | 12.2 | 0.00 | 0.00 | 0.00 | 37 | 1009.8 |
| 20260506010008 | 74 | 68 | 2.6 | 9.6 | 0.00 | 0.00 | 0.00 | 36 | 1009.7 |
| 20260506004519 | 75 | 199 | 1.7 | 7.8 | 0.00 | 0.00 | 0.00 | 35 | 1009.5 |
| 20260506003006 | 76 | 139 | 4.3 | 15.6 | 0.00 | 0.00 | 0.00 | 33 | 1009.3 |
| 20260506001505 | 76 | 176 | 5.2 | 10.4 | 0.00 | 0.00 | 0.00 | 31 | 1009.1 |
| 20260506000005 | 77 | 130 | 4.3 | 13.9 | 0.00 | 0.00 | 0.00 | 31 | 1009.1 |
| 20260505234505 | 77 | 190 | 6.1 | 16.5 | 0.00 | 0.00 | 0.00 | 31 | 1009.0 |
| 20260505233004 | 78 | 165 | 2.6 | 9.6 | 0.00 | 0.00 | 0.00 | 32 | 1008.9 |
| 20260505231507 | 78 | 258 | 7.0 | 16.5 | 0.00 | 0.00 | 0.00 | 30 | 1009.0 |
| 20260505230010 | 79 | 175 | 6.1 | 14.8 | 0.00 | 0.00 | 0.00 | 29 | 1009.0 |
| 20260505224500 | 80 | 244 | 7.8 | 15.6 | 0.00 | 0.00 | 0.00 | 27 | 1009.0 |
| 20260505223105 | 79 | 298 | 6.1 | 15.6 | 0.00 | 0.00 | 0.00 | 30 | 1009.1 |
| 20260505223001 | 79 | 194 | 5.2 | 15.6 | 0.00 | 0.00 | 0.00 | 31 | 1009.2 |
| 20260505221603 | 79 | 115 | 5.2 | 17.4 | 0.00 | 0.00 | 0.00 | 31 | 1009.1 |
| 20260505220109 | 80 | 224 | 6.1 | 23.5 | 0.00 | 0.00 | 0.00 | 30 | 1008.9 |
| 20260505214612 | 80 | 143 | 3.5 | 13.9 | 0.00 | 0.00 | 0.00 | 31 | 1009.0 |
| 20260505213058 | 80 | 165 | 6.1 | 16.5 | 0.00 | 0.00 | 0.00 | 31 | 1008.9 |
| 20260505211636 | 81 | 229 | 7.0 | 13.0 | 0.00 | 0.00 | 0.00 | 31 | 1008.7 |
| 20260505210057 | 81 | 153 | 7.8 | 20.9 | 0.00 | 0.00 | 0.00 | 30 | 1008.7 |
| 20260505204604 | 81 | 202 | 7.0 | 16.5 | 0.00 | 0.00 | 0.00 | 31 | 1008.9 |
| 20260505203057 | 82 | 230 | 6.1 | 20.0 | 0.00 | 0.00 | 0.00 | 28 | 1008.9 |
| 20260505201555 | 83 | 236 | 6.1 | 24.3 | 0.00 | 0.00 | 0.00 | 28 | 1008.8 |
| 20260505200055 | 83 | 240 | 8.7 | 17.4 | 0.00 | 0.00 | 0.00 | 27 | 1008.9 |
| 20260505194553 | 83 | 217 | 7.8 | 13.9 | 0.00 | 0.00 | 0.00 | 29 | 1009.0 |
| 20260505193052 | 83 | 252 | 5.2 | 19.1 | 0.00 | 0.00 | 0.00 | 29 | 1009.2 |
| 20260505191550 | 82 | 197 | 6.1 | 20.0 | 0.00 | 0.00 | 0.00 | 31 | 1009.4 |
| 20260505190052 | 83 | 158 | 6.1 | 15.6 | 0.00 | 0.00 | 0.00 | 29 | 1009.6 |
| 20260505184546 | 83 | 157 | 4.3 | 17.4 | 0.00 | 0.00 | 0.00 | 32 | 1009.8 |
| 20260505183045 | 83 | 146 | 6.1 | 12.2 | 0.00 | 0.00 | 0.00 | 34 | 1009.9 |
| 20260505181604 | 82 | 153 | 7.0 | 17.4 | 0.00 | 0.00 | 0.00 | 33 | 1010.2 |
| 20260505180047 | 82 | 184 | 7.8 | 17.4 | 0.00 | 0.00 | 0.00 | 33 | 1010.5 |
| 20260505174540 | 81 | 219 | 4.3 | 13.0 | 0.00 | 0.00 | 0.00 | 35 | 1010.6 |
| 20260505173036 | 81 | 244 | 5.2 | 14.8 | 0.00 | 0.00 | 0.00 | 32 | 1010.7 |
| 20260505171539 | 81 | 155 | 3.5 | 13.9 | 0.00 | 0.00 | 0.00 | 35 | 1010.9 |
| 20260505170032 | 80 | 232 | 3.5 | 13.9 | 0.00 | 0.00 | 0.00 | 36 | 1011.0 |
| 20260505164533 | 80 | 182 | 5.2 | 8.7 | 0.00 | 0.00 | 0.00 | 36 | 1011.2 |
| 20260505163030 | 79 | 248 | 2.6 | 12.2 | 0.00 | 0.00 | 0.00 | 38 | 1011.4 |
| 20260505161527 | 79 | 270 | 7.8 | 15.6 | 0.00 | 0.00 | 0.00 | 37 | 1011.8 |
| 20260505153032 | 77 | 177 | 5.2 | 9.6 | 0.00 | 0.00 | 0.00 | 42 | 1012.1 |
| 20260505151515 | 76 | 134 | 4.3 | 9.6 | 0.00 | 0.00 | 0.00 | 43 | 1012.0 |
| 20260505140108 | 72 | 273 | 1.7 | 6.1 | 0.00 | 0.00 | 0.00 | 53 | 1012.0 |
| 20260505124537 | 66 | 227 | 2.6 | 7.8 | 0.00 | 0.00 | 0.00 | 55 | 1012.5 |
| 20260505123046 | 64 | 184 | 1.7 | 6.1 | 0.00 | 0.00 | 0.00 | 57 | 1012.5 |
| 20260505121527 | 64 | 252 | 2.6 | 7.8 | 0.00 | 0.00 | 0.00 | 58 | 1012.4 |
| 20260505120022 | 62 | 265 | 3.5 | 7.8 | 0.00 | 0.00 | 0.00 | 59 | 1012.3 |
| 20260505114518 | 61 | 250 | 4.3 | 8.7 | 0.00 | 0.00 | 0.00 | 60 | 1012.3 |
| 20260505113016 | 61 | 273 | 1.7 | 8.7 | 0.00 | 0.00 | 0.00 | 60 | 1012.2 |
| 20260505111515 | 61 | 163 | 5.2 | 12.2 | 0.00 | 0.00 | 0.00 | 60 | 1012.0 |
| 20260505101503 | 60 | 215 | 2.6 | 11.3 | 0.00 | 0.00 | 0.00 | 62 | 1011.2 |
| 20260505100002 | 60 | 274 | 2.6 | 8.7 | 0.00 | 0.00 | 0.00 | 63 | 1011.3 |
| 20260505094559 | 60 | 227 | 2.6 | 8.7 | 0.00 | 0.00 | 0.00 | 63 | 1011.3 |
| 20260505093059 | 59 | 173 | 2.6 | 8.7 | 0.00 | 0.00 | 0.00 | 64 | 1011.1 |
| 20260505091559 | 60 | 210 | 2.6 | 8.7 | 0.00 | 0.00 | 0.00 | 64 | 1011.1 |
| 20260505090058 | 60 | 171 | 2.6 | 7.8 | 0.00 | 0.00 | 0.00 | 64 | 1011.1 |
| 20260505084603 | 60 | 193 | 1.7 | 7.8 | 0.00 | 0.00 | 0.00 | 64 | 1011.3 |
| 20260505083108 | 60 | 219 | 2.6 | 7.8 | 0.00 | 0.00 | 0.00 | 64 | 1011.2 |
| 20260505081554 | 60 | 200 | 1.7 | 11.3 | 0.00 | 0.00 | 0.00 | 65 | 1011.1 |
| 20260505080100 | 61 | 279 | 0.9 | 6.1 | 0.00 | 0.00 | 0.00 | 65 | 1011.1 |
| 20260505074550 | 61 | 158 | 1.7 | 5.2 | 0.00 | 0.00 | 0.00 | 65 | 1011.0 |
| 20260505073057 | 60 | 178 | 1.7 | 6.1 | 0.00 | 0.00 | 0.00 | 66 | 1010.9 |
| 20260505071549 | 60 | 144 | 0.9 | 7.8 | 0.00 | 0.00 | 0.00 | 66 | 1010.9 |
| 20260505070050 | 60 | 212 | 1.7 | 4.3 | 0.00 | 0.00 | 0.00 | 68 | 1010.8 |
| 20260505064614 | 59 | 155 | 0.9 | 4.3 | 0.00 | 0.00 | 0.00 | 69 | 1010.7 |
| 20260505063045 | 59 | 169 | 1.7 | 3.5 | 0.00 | 0.00 | 0.00 | 69 | 1010.8 |
| 20260505061544 | 57 | 128 | 1.7 | 3.5 | 0.00 | 0.00 | 0.00 | 74 | 1011.0 |
| 20260505060042 | 57 | 133 | 1.7 | 3.5 | 0.00 | 0.00 | 0.00 | 73 | 1011.0 |